This is the latest recevied weather packets stored in our database for station/object W0AKY-13. If no packets are shown the sender has not sent any weather packets the latest 10 day(s).
| Time | Temp. | Humidity | Pressure | Rain* | Wind** | Luminosity | Snow |
|---|---|---|---|---|---|---|---|
| 1777886946 | 9.44° C | 84% | 1004.7 hPa | 0 mm | - | 0 W/m² | - |
| 1777886642 | 9.44° C | 85% | 1004.5 hPa | 0 mm | - | 0 W/m² | - |
| 1777886340 | 9.44° C | 88% | 1004.9 hPa | 0 mm | - | 0 W/m² | - |
| 1777886037 | 9.44° C | 88% | 1004.6 hPa | 0 mm | - | 0 W/m² | - |
| 1777885736 | 9.44° C | 88% | 1004.5 hPa | 0 mm | - | 0 W/m² | - |
| 1777885433 | 9.44° C | 87% | 1004.7 hPa | 0 mm | - | 0 W/m² | - |
| 1777885132 | 9.44° C | 85% | 1005.1 hPa | 0 mm | - | 0 W/m² | - |
| 1777884828 | 9.44° C | 85% | 1005.1 hPa | 0 mm | - | 0 W/m² | - |
| 1777884524 | 9.44° C | 87% | 1005.3 hPa | 0 mm | - | 0 W/m² | - |
| 1777884221 | 9.44° C | 88% | 1005.2 hPa | 0 mm | - | 0 W/m² | - |
| 1777883917 | 9.44° C | 88% | 1005.4 hPa | 0 mm | - | 0 W/m² | - |
| 1777883614 | 9.44° C | 87% | 1005.3 hPa | 0 mm | - | 0 W/m² | - |
| 1777883310 | 9.44° C | 87% | 1005.2 hPa | 0 mm | - | 0 W/m² | - |
| 1777883007 | 9.44° C | 87% | 1005.4 hPa | 0 mm | - | 0 W/m² | - |
| 1777882704 | 10° C | 87% | 1005.5 hPa | 0 mm | - | 0 W/m² | - |
| 1777882401 | 10° C | 86% | 1005.6 hPa | 0 mm | - | 0 W/m² | - |
| 1777882096 | 10° C | 86% | 1005.9 hPa | 0 mm | - | 0 W/m² | - |
| 1777881793 | 10° C | 87% | 1005.9 hPa | 0 mm | - | 0 W/m² | - |
| 1777881490 | 10° C | 87% | 1006.1 hPa | 0 mm | - | 0 W/m² | - |
| 1777881187 | 10.56° C | 87% | 1006.2 hPa | 0 mm | - | 0 W/m² | - |
| 1777880885 | 10° C | 85% | 1006.3 hPa | 0 mm | - | 0 W/m² | - |
| 1777880582 | 10.56° C | 84% | 1006.4 hPa | 0 mm | - | 0 W/m² | - |
| 1777880281 | 10.56° C | 82% | 1006.6 hPa | 0 mm | - | 0 W/m² | - |
| 1777879979 | 10.56° C | 82% | 1006.8 hPa | 0 mm | - | 0 W/m² | - |
| 1777879677 | 10.56° C | 85% | 1006.9 hPa | 0 mm | - | 0 W/m² | - |
* Rain latest hour (hover to see other rain measurements)
** Current wind speed in m/s (hover to see current wind gust speed)